[[{"header":{"parameterUnit":"m.s-1","parameterCategory":1,"la1":30.2991,"la2":30.254,"lo1":-89.0895,"lo2":-89.0444,"dy":0.0017,"dx":0.0017,"nx":28,"ny":28,"refTime":"2025-08-19T21:00:00:Z","depth":0,"parameterNumber":2,"parameterNumberName":"U-component_of_WINDS"},"data":[0,0,0,0,0,0,0,0,0,0,0,0,0,0,0,0,0,0,0,0,0,0,0,0,0,0,0,0,0,0,0,0,0,0,0,0,0,0,0,0,0,0,0,0,0,0,0,0,0,0,0,0,0,0,0,0,0,0,1.1985,1.1986,0,1.2024,1.2024,1.2025,1.2023,1.2023,1.2022,1.2022,1.206,1.2061,1.2062,0,0,0,0,0,0,0,0,0,0,0,0,0,1.1907,1.1908,1.1985,1.1986,1.1986,1.2024,1.2024,1.2025,1.2023,1.2023,1.2022,1.2021,1.2059,1.2061,1.2063,0,0,0,0,0,0,0,0,0,0,0,0,0,1.1943,1.1909,1.1985,1.199,1.1991,1.2024,1.2024,1.2025,1.2023,1.2023,1.2022,1.2021,1.2058,1.2061,1.2063,1.2093,0,0,1.207,1.2071,0,0,0,0,0,0,0,0,1.194,1.1945,1.1989,1.199,1.1991,1.2018,1.2011,1.2048,1.2024,1.2011,1.2021,1.2021,1.2046,1.2049,1.2058,1.2095,1.2097,1.207,1.2071,1.2072,1.2073,0,0,0,0,0,0,0,1.1938,1.1944,1.2,1.1989,1.199,1.1989,1.1993,1.2018,1.2033,1.2012,1.2012,1.2017,1.2047,1.2056,1.2059,1.2097,1.207,1.2072,1.2073,1.2074,1.2158,1.2159,0,0,0,0,0,0,1.1935,1.1942,1.1999,1.2002,1.1963,1.1991,1.1996,1.201,1.2032,1.2035,1.2017,1.2016,1.2053,1.2057,1.2061,1.2096,1.2072,1.2074,1.2076,1.2157,1.2158,1.2159,0,0,0,0,0,0,1.1933,1.194,1.1998,1.1972,1.1979,1.1993,1.2009,1.2011,1.2021,1.2036,1.2039,1.2025,1.2052,1.2057,1.2085,1.2098,1.2076,1.2078,1.2156,1.2158,1.2159,1.2168,0,0,0,0,0,0,1.1931,1.1939,1.1952,1.1972,1.198,1.2022,1.201,1.2012,1.2025,1.2024,1.2044,1.2046,1.2052,1.2081,1.2087,1.21,1.2079,1.2155,1.2157,1.2158,1.2167,1.217,1.2172,0,0,0,0,0,1.1928,1.1953,1.1953,1.196,1.1996,1.2023,1.2027,1.2034,1.2026,1.2038,1.2048,1.2046,1.2095,1.2084,1.2091,1.2105,1.2154,1.2156,1.2158,1.2166,1.2169,1.2172,0,0,0,0,0,0,1.1934,1.1956,1.1956,1.1988,1.2004,1.2023,1.2038,1.2038,1.2056,1.2054,1.2061,1.2065,1.2092,1.2101,1.2088,1.2134,1.2124,1.2127,1.2127,1.2131,1.2133,1.213,1.2081,0,0,0,0,0,1.1939,1.196,1.1977,1.2004,1.2012,1.2024,1.2035,1.2039,1.2055,1.2062,1.2073,1.2088,1.2107,1.212,1.2138,1.2168,1.2172,1.2181,1.2184,1.2186,1.2188,1.2203,1.2207,1.2166,1.2166,1.2166,0,0,1.195,1.1965,1.1977,1.2006,1.2018,1.2038,1.2029,1.2051,1.2065,1.2065,1.2091,1.21,1.2117,1.2146,1.2159,1.2154,1.22,1.2188,1.219,1.2191,1.2206,1.2209,1.2213,1.2167,1.2167,1.2167,0,0,1.198,1.1993,1.2016,1.2029,1.2048,1.2055,1.206,1.2079,1.2085,1.2112,1.2111,1.2128,1.216,1.2172,1.2182,1.2214,1.2213,1.222,1.2234,1.2248,1.2251,1.2254,1.2264,1.2268,1.2223,1.2223,1.2223,0,1.1991,1.2021,1.2028,1.205,1.2062,1.2062,1.2084,1.2096,1.212,1.2127,1.2122,1.2161,1.2173,1.2204,1.2211,1.222,1.2225,1.2218,1.2251,1.2254,1.2256,1.2266,1.227,1.2223,1.2223,1.2223,1.2223,0,1.2033,1.2054,1.207,1.2093,1.2107,1.2129,1.2137,1.215,1.2152,1.216,1.2185,1.2199,1.222,1.2227,1.223,1.2257,1.2254,1.2249,1.2239,1.2261,1.227,1.2274,1.2224,1.2224,1.2224,1.2224,0,0,1.2068,1.2093,1.2099,1.2109,1.2129,1.2145,1.2166,1.2186,1.2196,1.2212,1.2229,1.2256,1.2251,1.2263,1.2266,1.2279,1.2301,1.2273,1.2273,1.2277,1.2331,1.2334,1.2338,1.23,1.2301,1.2302,1.2329,0,1.2099,1.2137,1.2143,1.2176,1.2194,1.2194,1.2212,1.2226,1.2233,1.2249,1.2256,1.2275,1.2268,1.2275,1.2288,1.2296,1.2312,1.2294,1.2315,1.2316,1.231,1.2343,1.2346,1.2371,1.2333,1.2334,1.2334,0,1.214,1.2157,1.2192,1.2208,1.2216,1.2232,1.225,1.2266,1.228,1.2284,1.2296,1.2298,1.2318,1.2307,1.2334,1.2322,1.2331,1.2336,1.2337,1.2338,1.2326,1.2344,1.238,1.2383,1.234,1.234,1.2339,0,1.2161,1.2192,1.2216,1.2225,1.2244,1.2255,1.2264,1.2278,1.2289,1.2304,1.2311,1.2328,1.2338,1.2351,1.2356,1.2348,1.2382,1.2372,1.2385,1.2385,1.2392,1.2392,1.2429,1.2399,1.2399,1.2399,1.2399,0,1.2194,1.2215,1.2226,1.2241,1.2263,1.2269,1.2291,1.23,1.2312,1.2327,1.2328,1.2342,1.2349,1.2364,1.2368,1.2389,1.2394,1.2397,1.2397,1.2396,1.2396,1.2402,1.24,1.24,1.24,1.24,1.24,0,1.2221,1.2229,1.2255,1.2271,1.2276,1.2292,1.2305,1.2318,1.2325,1.2345,1.2349,1.2359,1.2377,1.2384,1.2405,1.2408,1.2432,1.2432,1.2427,1.2427,1.2439,1.2438,1.2481,1.2486,1.2454,1.2454,1.2455,0,1.2241,1.2257,1.2274,1.2285,1.2294,1.2311,1.2322,1.2328,1.2339,1.2356,1.2367,1.2385,1.2399,1.2427,1.2436,1.2452,1.2451,1.2465,1.2454,1.2451,1.245,1.2449,1.2449,1.2467,1.2467,1.2468,1.2468,0,1.2276,1.2278,1.2295,1.2312,1.2325,1.2339,1.2352,1.236,1.2368,1.238,1.2398,1.2409,1.2431,1.2448,1.2464,1.2472,1.247,1.2471,1.2475,1.2474,1.247,1.2471,1.2432,1.247,1.247,1.247,1.247,1.247,1.2299,1.2312,1.2326,1.2344,1.2354,1.2366,1.238,1.2388,1.2403,1.2421,1.2423,1.2442,1.2454,1.2476,1.2484,1.2498,1.2495,1.25,1.2501,1.2503,1.2503,1.2468,1.2501,1.2501,1.2501,1.2501,1.2501,0,1.2332,1.2341,1.2357,1.2376,1.2389,1.2387,1.2401,1.2412,1.2429,1.2441,1.2455,1.2474,1.249,1.25,1.2515,1.2525,1.2524,1.2529,1.2527,1.2529,1.2506,1.2501,1.2528,1.2528,1.2528,1.2528,1.2528,1.2528,1.2352,1.2374,1.2378,1.2405,1.2413,1.2432,1.244,1.245,1.246,1.2482,1.2495,1.2501,1.2512,1.2528,1.2542,1.2544,1.2549,1.2554,1.2555,1.2534,1.2531,1.2528,1.2523,1.2555,1.2555,1.2577,1.2577,1.2577]},{"header":{"parameterUnit":"m.s-1","parameterCategory":1,"la1":30.2991,"la2":30.254,"lo1":-89.0895,"lo2":-89.0444,"dy":0.0017,"dx":0.0017,"nx":28,"ny":28,"refTime":"2025-08-19T21:00:00:Z","depth":0,"parameterNumber":3,"parameterNumberName":"V-component_of_WINDS"},"data":[0,0,0,0,0,0,0,0,0,0,0,0,0,0,0,0,0,0,0,0,0,0,0,0,0,0,0,0,0,0,0,0,0,0,0,0,0,0,0,0,0,0,0,0,0,0,0,0,0,0,0,0,0,0,0,0,0,0,1.3142,1.3141,0,1.3078,1.3077,1.3077,1.3027,1.3026,1.3026,1.3025,1.2957,1.2956,1.2955,0,0,0,0,0,0,0,0,0,0,0,0,0,1.3218,1.3217,1.3142,1.3141,1.3141,1.3078,1.3077,1.3076,1.3027,1.3026,1.3026,1.3025,1.2958,1.2956,1.2955,0,0,0,0,0,0,0,0,0,0,0,0,0,1.3172,1.3216,1.3142,1.3108,1.3105,1.3078,1.3077,1.3076,1.3027,1.3026,1.3026,1.3025,1.2958,1.2956,1.2954,1.2956,0,0,1.2948,1.2947,0,0,0,0,0,0,0,0,1.3175,1.317,1.3114,1.3111,1.3106,1.306,1.3079,1.3036,1.3027,1.3056,1.3025,1.3025,1.2992,1.2987,1.2977,1.2953,1.295,1.2948,1.2947,1.2946,1.2945,0,0,0,0,0,0,0,1.3178,1.3172,1.3117,1.3113,1.3109,1.3095,1.3088,1.3071,1.3029,1.3054,1.305,1.3043,1.299,1.2979,1.2975,1.2949,1.2948,1.2946,1.2945,1.2944,1.292,1.292,0,0,0,0,0,0,1.3187,1.3175,1.3119,1.3115,1.314,1.3094,1.3086,1.3075,1.3029,1.3021,1.3044,1.3041,1.2983,1.2977,1.2972,1.2968,1.2946,1.2944,1.2943,1.2919,1.292,1.292,0,0,0,0,0,0,1.3189,1.3183,1.3121,1.3144,1.3135,1.3094,1.3082,1.3075,1.3063,1.3021,1.3013,1.3041,1.2982,1.2975,1.296,1.2965,1.2943,1.2941,1.2918,1.2919,1.292,1.2963,0,0,0,0,0,0,1.3191,1.3184,1.3185,1.3144,1.3134,1.3111,1.3082,1.3074,1.306,1.3056,1.3016,1.3009,1.2981,1.2963,1.2958,1.2962,1.294,1.2918,1.2919,1.292,1.2961,1.2965,1.2969,0,0,0,0,0,1.3194,1.3199,1.3185,1.3178,1.3135,1.3112,1.3106,1.3074,1.3061,1.3061,1.3034,1.301,1.2966,1.2962,1.2955,1.296,1.2917,1.2918,1.292,1.2959,1.2964,1.2969,0,0,0,0,0,0,1.3241,1.3194,1.3177,1.317,1.3145,1.3104,1.3103,1.3081,1.3059,1.3056,1.3017,1.3008,1.2997,1.2977,1.2973,1.2957,1.2938,1.2938,1.297,1.2975,1.2979,1.2984,1.2938,0,0,0,0,0,1.3251,1.3237,1.3196,1.3193,1.3182,1.3145,1.3133,1.3111,1.3084,1.3073,1.3044,1.3018,1.2998,1.2986,1.2965,1.2958,1.2947,1.2957,1.2961,1.2965,1.2965,1.2957,1.2961,1.2925,1.2925,1.2925,0,0,1.327,1.3242,1.3236,1.3202,1.318,1.3166,1.3136,1.3122,1.3111,1.307,1.3054,1.3032,1.3,1.2988,1.2982,1.2971,1.2973,1.2967,1.297,1.2968,1.2959,1.2962,1.2965,1.2926,1.2925,1.2925,0,0,1.3298,1.3276,1.3271,1.3249,1.3217,1.3192,1.3191,1.3152,1.3136,1.3119,1.3088,1.3073,1.304,1.3017,1.3002,1.3019,1.2996,1.3013,1.3034,1.3027,1.303,1.3032,1.3036,1.3038,1.3014,1.3014,1.3014,0,1.3325,1.3303,1.327,1.3258,1.3243,1.3206,1.3199,1.318,1.3142,1.3132,1.3121,1.3077,1.3053,1.3034,1.3038,1.3027,1.3023,1.3017,1.3032,1.3034,1.3036,1.3039,1.3041,1.3016,1.3016,1.3016,1.3015,0,1.3338,1.3323,1.3322,1.3287,1.3272,1.3262,1.3226,1.3214,1.3193,1.3168,1.315,1.312,1.3091,1.3085,1.3064,1.3063,1.3057,1.304,1.302,1.3042,1.3044,1.3046,1.3019,1.3018,1.3018,1.3017,0,0,1.3394,1.334,1.334,1.3322,1.3283,1.327,1.3258,1.3231,1.322,1.3196,1.3183,1.3155,1.3138,1.312,1.3096,1.309,1.3103,1.3073,1.3071,1.3078,1.3097,1.3109,1.3111,1.3087,1.3087,1.3088,1.3099,0,1.3414,1.3391,1.336,1.3347,1.3331,1.3295,1.3284,1.3258,1.3235,1.3217,1.319,1.317,1.3151,1.3139,1.3132,1.3103,1.3106,1.3102,1.3073,1.3073,1.3081,1.3113,1.3126,1.3138,1.31,1.31,1.31,0,1.3434,1.3411,1.3397,1.3357,1.3349,1.334,1.3312,1.3296,1.3265,1.3248,1.3227,1.3201,1.3184,1.3167,1.3142,1.314,1.3126,1.311,1.311,1.3105,1.3087,1.3107,1.3142,1.3143,1.3102,1.3101,1.3101,0,1.3474,1.3439,1.3425,1.3412,1.3366,1.336,1.3341,1.3309,1.3294,1.3268,1.3258,1.3231,1.3215,1.3194,1.316,1.3151,1.3138,1.3119,1.3122,1.3122,1.312,1.312,1.3151,1.3114,1.3113,1.3113,1.3113,0,1.3499,1.3491,1.3442,1.3434,1.3423,1.3387,1.3377,1.3354,1.3325,1.331,1.3278,1.3264,1.3221,1.3201,1.3175,1.3157,1.3151,1.3135,1.3128,1.3137,1.3139,1.3127,1.3125,1.3114,1.3114,1.3114,1.3114,0,1.3541,1.3509,1.3491,1.3449,1.3438,1.3432,1.3395,1.3384,1.3358,1.3339,1.3333,1.3292,1.3267,1.3232,1.3196,1.3178,1.3163,1.3153,1.3174,1.3169,1.3174,1.3173,1.3197,1.3197,1.3161,1.3162,1.3162,0,1.3558,1.3551,1.3508,1.3496,1.3478,1.3459,1.3443,1.3407,1.3391,1.3355,1.3348,1.3321,1.3297,1.3259,1.3225,1.3197,1.3184,1.3194,1.3179,1.3188,1.3182,1.3182,1.318,1.3197,1.3198,1.3198,1.3199,0,1.3592,1.3576,1.3555,1.3528,1.3511,1.3487,1.3463,1.3454,1.3412,1.3396,1.3371,1.3352,1.3315,1.3288,1.3255,1.3233,1.3208,1.3204,1.3202,1.3212,1.3224,1.3215,1.3182,1.3203,1.3203,1.3202,1.3202,1.3202,1.3621,1.3612,1.358,1.3558,1.3535,1.3512,1.35,1.3472,1.3451,1.3419,1.3398,1.3373,1.334,1.3293,1.3272,1.3251,1.3241,1.3239,1.3239,1.3239,1.3241,1.3228,1.3245,1.3244,1.3244,1.3244,1.3244,0,1.3651,1.3629,1.3609,1.3575,1.3556,1.3536,1.3507,1.3492,1.3471,1.3443,1.342,1.3389,1.3362,1.3326,1.3296,1.3285,1.3273,1.3279,1.3278,1.3273,1.3253,1.3256,1.3289,1.3289,1.3289,1.3289,1.3289,1.3289,1.3665,1.3649,1.3629,1.36,1.3577,1.3553,1.3538,1.3516,1.3493,1.3461,1.3438,1.3415,1.3383,1.335,1.3323,1.3313,1.3302,1.3311,1.3297,1.3279,1.3275,1.3271,1.3274,1.3309,1.3309,1.3319,1.3319,1.3319]}]]